Location: North Evanston
(42.0634°N, 87.6976°W)
Time: 20:45:07
(UTC+00:00)

Injun/Solrad 3 - Pass Details

Date: 18 May 2026
Orbit: 867 x 989 km, 66.8° (Epoch: 6 June)

Event Time Altitude Azimuth Distance (km) Brightness Sun altitude
Rises 06:04:32 0° 326° (NNW) 3,689 11.8 -28.2°
Reaches altitude 10° 06:07:07 10° 324° (NW) 2,746 10.9 -28.2°
Enters shadow 06:13:21 62° 250° (WSW) 1,102 8.0 -28.1°
Maximum altitude 06:13:28 62° 245° (WSW) 1,101 - -28.1°
Drops below altitude 10° 06:19:47 10° 166° (SSE) 2,731 - -27.9°
Sets 06:22:21 0° 163° (SSE) 3,667 - -27.8°
